| time (UTC) | temp F | wind direction | speed knots | gust knots | rain 1hr in | rain 24hr in | rain mn in | humidity % | barometer mb |
| 20260502170503 | 60 | 46 | 0.0 | 2.6 | 0.00 | 0.00 | 0.00 | 47 | 1012.4 |
| 20260502164003 | 59 | 69 | 0.0 | 0.9 | 0.00 | 0.00 | 0.00 | 50 | 1012.7 |
| 20260502163503 | 58 | 70 | 0.0 | 0.9 | 0.00 | 0.00 | 0.00 | 49 | 1012.7 |
| 20260502163003 | 58 | 68 | 0.9 | 4.3 | 0.00 | 0.00 | 0.00 | 47 | 1012.7 |
| 20260502162503 | 58 | 62 | 0.9 | 4.3 | 0.00 | 0.00 | 0.00 | 47 | 1012.8 |
| 20260502162024 | 58 | 47 | 0.0 | 2.6 | 0.00 | 0.00 | 0.00 | 47 | 1013.0 |
| 20260502161503 | 58 | 339 | 0.0 | 2.6 | 0.00 | 0.00 | 0.00 | 49 | 1013.1 |
| 20260502161003 | 57 | 306 | 0.0 | 4.3 | 0.00 | 0.00 | 0.00 | 50 | 1013.1 |
| 20260502160503 | 57 | 302 | 0.0 | 4.3 | 0.00 | 0.00 | 0.00 | 50 | 1013.1 |
| 20260502151503 | 56 | 62 | 0.0 | 3.5 | 0.00 | 0.00 | 0.00 | 52 | 1013.2 |
| 20260502151003 | 56 | 49 | 0.0 | 6.1 | 0.00 | 0.00 | 0.00 | 50 | 1013.1 |
| 20260502150503 | 56 | 50 | 0.0 | 6.1 | 0.00 | 0.00 | 0.00 | 49 | 1013.2 |
| 20260502130503 | 53 | 115 | 0.0 | 0.9 | 0.00 | 0.00 | 0.00 | 58 | 1012.9 |
| 20260502123503 | 52 | 0 | 0.0 | 0.0 | 0.00 | 0.00 | 0.00 | 59 | 1012.9 |
| 20260502123003 | 52 | 117 | 0.0 | 1.7 | 0.00 | 0.00 | 0.00 | 58 | 1012.9 |
| 20260502122503 | 52 | 118 | 0.0 | 1.7 | 0.00 | 0.00 | 0.00 | 60 | 1012.9 |
| 20260502122024 | 52 | 119 | 0.0 | 1.7 | 0.00 | 0.00 | 0.00 | 61 | 1012.7 |
| 20260502121503 | 52 | 121 | 0.0 | 3.5 | 0.00 | 0.00 | 0.00 | 60 | 1012.6 |
| 20260502121003 | 52 | 130 | 0.0 | 3.5 | 0.00 | 0.00 | 0.00 | 56 | 1012.4 |
| 20260502120503 | 52 | 190 | 0.0 | 3.5 | 0.00 | 0.00 | 0.00 | 56 | 1012.4 |
| 20260502115503 | 52 | 241 | 0.0 | 4.3 | 0.00 | 0.00 | 0.00 | 61 | 1012.1 |
| 20260502115003 | 52 | 0 | 0.0 | 0.0 | 0.00 | 0.00 | 0.00 | 63 | 1012.0 |
| 20260502114503 | 52 | 227 | 0.0 | 0.9 | 0.00 | 0.00 | 0.00 | 63 | 1012.1 |
| 20260502114003 | 52 | 227 | 0.0 | 0.9 | 0.00 | 0.00 | 0.00 | 64 | 1012.2 |
| 20260502113524 | 52 | 227 | 0.0 | 0.9 | 0.00 | 0.00 | 0.00 | 66 | 1012.1 |
| 20260502113003 | 51 | 0 | 0.0 | 0.0 | 0.00 | 0.00 | 0.00 | 66 | 1012.0 |
| 20260502112503 | 51 | 0 | 0.0 | 0.0 | 0.00 | 0.00 | 0.00 | 70 | 1011.9 |
| 20260502112003 | 50 | 0 | 0.0 | 0.0 | 0.00 | 0.00 | 0.00 | 70 | 1011.7 |
| 20260502111503 | 50 | 0 | 0.0 | 0.0 | 0.00 | 0.00 | 0.00 | 73 | 1011.8 |
| 20260502111003 | 49 | 222 | 0.0 | 0.9 | 0.00 | 0.00 | 0.00 | 75 | 1011.8 |
| 20260502110503 | 49 | 222 | 0.0 | 0.9 | 0.00 | 0.00 | 0.00 | 76 | 1011.7 |
| 20260502110003 | 48 | 0 | 0.0 | 0.0 | 0.00 | 0.00 | 0.00 | 81 | 1011.8 |
| 20260502105503 | 48 | 0 | 0.0 | 0.0 | 0.00 | 0.00 | 0.00 | 83 | 1011.8 |
| 20260502105003 | 48 | 0 | 0.0 | 0.0 | 0.00 | 0.00 | 0.00 | 85 | 1011.8 |
| 20260502104503 | 48 | 0 | 0.0 | 0.0 | 0.00 | 0.00 | 0.00 | 85 | 1011.9 |
| 20260502104003 | 48 | 0 | 0.0 | 0.0 | 0.00 | 0.00 | 0.00 | 85 | 1012.0 |
| 20260502103503 | 48 | 0 | 0.0 | 0.0 | 0.00 | 0.00 | 0.00 | 86 | 1012.0 |
| 20260502103003 | 48 | 0 | 0.0 | 0.0 | 0.00 | 0.00 | 0.00 | 85 | 1012.1 |
| 20260502102503 | 48 | 0 | 0.0 | 0.0 | 0.00 | 0.00 | 0.00 | 85 | 1012.1 |
| 20260502102003 | 48 | 0 | 0.0 | 0.0 | 0.00 | 0.00 | 0.00 | 85 | 1012.2 |
| 20260502101503 | 48 | 0 | 0.0 | 0.0 | 0.00 | 0.00 | 0.00 | 85 | 1012.1 |
| 20260502101024 | 48 | 0 | 0.0 | 0.0 | 0.00 | 0.00 | 0.00 | 84 | 1012.0 |
| 20260502100503 | 48 | 0 | 0.0 | 0.0 | 0.00 | 0.00 | 0.00 | 84 | 1012.0 |
| 20260502091503 | 49 | 0 | 0.0 | 0.0 | 0.00 | 0.00 | 0.00 | 80 | 1011.8 |
| 20260502091003 | 49 | 0 | 0.0 | 0.0 | 0.00 | 0.00 | 0.00 | 80 | 1011.7 |
| 20260502090503 | 49 | 0 | 0.0 | 0.0 | 0.00 | 0.00 | 0.00 | 80 | 1011.7 |
| 20260502071503 | 51 | 0 | 0.0 | 0.0 | 0.00 | 0.00 | 0.00 | 83 | 1010.8 |
| 20260502071024 | 51 | 0 | 0.0 | 0.0 | 0.00 | 0.00 | 0.00 | 83 | 1010.8 |
| 20260502070503 | 51 | 0 | 0.0 | 0.0 | 0.00 | 0.00 | 0.00 | 82 | 1010.9 |
| 20260502070024 | 51 | 0 | 0.0 | 0.0 | 0.00 | 0.00 | 0.00 | 82 | 1010.9 |
| 20260502065524 | 51 | 0 | 0.0 | 0.0 | 0.00 | 0.00 | 0.00 | 83 | 1010.9 |
| 20260502065003 | 51 | 0 | 0.0 | 0.0 | 0.00 | 0.00 | 0.00 | 83 | 1010.9 |
| 20260502064503 | 51 | 0 | 0.0 | 0.0 | 0.00 | 0.00 | 0.00 | 84 | 1010.9 |
| 20260502064003 | 51 | 0 | 0.0 | 0.0 | 0.00 | 0.00 | 0.00 | 85 | 1010.9 |
| 20260502063524 | 51 | 0 | 0.0 | 0.0 | 0.00 | 0.00 | 0.00 | 84 | 1011.0 |
| 20260502063003 | 51 | 0 | 0.0 | 0.0 | 0.00 | 0.00 | 0.00 | 86 | 1010.9 |
| 20260502062524 | 51 | 0 | 0.0 | 0.0 | 0.00 | 0.00 | 0.00 | 87 | 1010.9 |
| 20260502062024 | 51 | 0 | 0.0 | 0.0 | 0.00 | 0.00 | 0.00 | 87 | 1011.1 |
| 20260502061003 | 51 | 0 | 0.0 | 0.0 | 0.00 | 0.00 | 0.00 | 87 | 1011.1 |
| 20260502060503 | 51 | 0 | 0.0 | 0.0 | 0.00 | 0.00 | 0.00 | 88 | 1011.0 |
| 20260502060003 | 52 | 0 | 0.0 | 0.0 | 0.00 | 0.00 | 0.00 | 88 | 1011.0 |
| 20260502055503 | 52 | 0 | 0.0 | 0.0 | 0.00 | 0.00 | 0.00 | 87 | 1010.9 |
| 20260502055003 | 52 | 0 | 0.0 | 0.0 | 0.00 | 0.00 | 0.00 | 87 | 1011.0 |
| 20260502054524 | 52 | 0 | 0.0 | 0.0 | 0.00 | 0.00 | 0.00 | 87 | 1011.1 |
| 20260502054003 | 52 | 0 | 0.0 | 0.0 | 0.00 | 0.00 | 0.00 | 86 | 1011.1 |
| 20260502053503 | 52 | 0 | 0.0 | 0.0 | 0.00 | 0.00 | 0.00 | 86 | 1011.2 |
| 20260502053003 | 52 | 0 | 0.0 | 0.0 | 0.00 | 0.00 | 0.00 | 86 | 1011.2 |
| 20260502052503 | 52 | 0 | 0.0 | 0.0 | 0.00 | 0.00 | 0.00 | 86 | 1011.3 |
| 20260502052003 | 53 | 0 | 0.0 | 0.0 | 0.00 | 0.00 | 0.00 | 85 | 1011.4 |
| 20260502051503 | 53 | 0 | 0.0 | 0.0 | 0.00 | 0.00 | 0.00 | 84 | 1011.4 |
| 20260502051024 | 53 | 0 | 0.0 | 0.0 | 0.00 | 0.00 | 0.00 | 84 | 1011.3 |
| 20260502050503 | 53 | 0 | 0.0 | 0.0 | 0.00 | 0.00 | 0.00 | 84 | 1011.3 |
| 20260502050024 | 54 | 0 | 0.0 | 0.0 | 0.00 | 0.00 | 0.00 | 83 | 1011.4 |
| 20260502045503 | 54 | 0 | 0.0 | 0.0 | 0.00 | 0.00 | 0.00 | 82 | 1011.3 |
| 20260502045003 | 54 | 0 | 0.0 | 0.0 | 0.00 | 0.00 | 0.00 | 82 | 1011.2 |
| 20260502044504 | 54 | 0 | 0.0 | 0.0 | 0.00 | 0.00 | 0.00 | 81 | 1011.1 |
| 20260502044024 | 54 | 0 | 0.0 | 0.0 | 0.00 | 0.00 | 0.00 | 81 | 1011.1 |
| 20260502043503 | 55 | 0 | 0.0 | 0.0 | 0.00 | 0.00 | 0.00 | 80 | 1011.3 |
| 20260502043003 | 55 | 0 | 0.0 | 0.0 | 0.00 | 0.00 | 0.00 | 80 | 1011.3 |
| 20260502042503 | 55 | 0 | 0.0 | 0.0 | 0.00 | 0.00 | 0.00 | 80 | 1011.3 |
| 20260502042003 | 55 | 0 | 0.0 | 0.0 | 0.00 | 0.00 | 0.00 | 80 | 1011.3 |
| 20260502041503 | 56 | 0 | 0.0 | 0.0 | 0.00 | 0.00 | 0.00 | 80 | 1011.3 |
| 20260502041003 | 56 | 0 | 0.0 | 0.0 | 0.00 | 0.00 | 0.00 | 79 | 1011.2 |
| 20260502040503 | 56 | 0 | 0.0 | 0.0 | 0.00 | 0.00 | 0.00 | 79 | 1011.1 |
| 20260502040004 | 56 | 0 | 0.0 | 0.0 | 0.00 | 0.00 | 0.00 | 78 | 1011.2 |
| 20260502035503 | 57 | 0 | 0.0 | 0.0 | 0.00 | 0.00 | 0.00 | 78 | 1011.3 |
| 20260502035003 | 57 | 0 | 0.0 | 0.0 | 0.00 | 0.00 | 0.00 | 77 | 1011.3 |
| 20260502034503 | 57 | 0 | 0.0 | 0.0 | 0.00 | 0.00 | 0.00 | 77 | 1011.2 |
| 20260502034024 | 57 | 0 | 0.0 | 0.0 | 0.00 | 0.00 | 0.00 | 76 | 1011.2 |
| 20260502033503 | 58 | 0 | 0.0 | 0.0 | 0.00 | 0.00 | 0.00 | 75 | 1011.1 |
| 20260502033003 | 58 | 0 | 0.0 | 0.0 | 0.00 | 0.00 | 0.00 | 75 | 1011.1 |
| 20260502032503 | 58 | 0 | 0.0 | 0.0 | 0.00 | 0.00 | 0.00 | 74 | 1011.0 |
| 20260502032003 | 58 | 0 | 0.0 | 0.0 | 0.00 | 0.00 | 0.00 | 74 | 1010.9 |
| 20260502031503 | 58 | 0 | 0.0 | 0.0 | 0.00 | 0.00 | 0.00 | 74 | 1010.9 |
| 20260502031003 | 58 | 223 | 0.0 | 0.9 | 0.00 | 0.00 | 0.00 | 73 | 1010.9 |
| 20260502030503 | 59 | 223 | 0.0 | 0.9 | 0.00 | 0.00 | 0.00 | 73 | 1011.0 |
| 20260502030003 | 59 | 225 | 0.0 | 3.5 | 0.00 | 0.00 | 0.00 | 72 | 1011.0 |
| 20260502025503 | 59 | 220 | 0.0 | 6.1 | 0.00 | 0.00 | 0.00 | 72 | 1011.0 |
| 20260502025003 | 59 | 218 | 0.0 | 6.1 | 0.00 | 0.00 | 0.00 | 72 | 1011.0 |
| 20260502024503 | 59 | 0 | 0.0 | 0.0 | 0.00 | 0.00 | 0.00 | 71 | 1010.9 |
| 20260502024003 | 59 | 0 | 0.0 | 0.0 | 0.00 | 0.00 | 0.00 | 71 | 1010.8 |
| 20260502023524 | 60 | 0 | 0.0 | 0.0 | 0.00 | 0.00 | 0.00 | 70 | 1010.8 |
| 20260502023003 | 60 | 0 | 0.0 | 0.0 | 0.00 | 0.00 | 0.00 | 70 | 1010.7 |
| 20260502022503 | 60 | 175 | 0.0 | 0.9 | 0.00 | 0.00 | 0.00 | 70 | 1010.6 |
| 20260502022003 | 60 | 175 | 0.0 | 0.9 | 0.00 | 0.00 | 0.00 | 69 | 1010.3 |
| 20260502021503 | 60 | 0 | 0.0 | 0.0 | 0.00 | 0.00 | 0.00 | 69 | 1010.4 |
| 20260502021003 | 60 | 167 | 0.0 | 0.9 | 0.00 | 0.00 | 0.00 | 68 | 1010.4 |
| 20260502020503 | 60 | 167 | 0.0 | 0.9 | 0.00 | 0.00 | 0.00 | 68 | 1010.4 |
| 20260502020003 | 60 | 198 | 0.0 | 5.2 | 0.00 | 0.00 | 0.00 | 67 | 1010.4 |
| 20260502015503 | 61 | 198 | 0.0 | 5.2 | 0.00 | 0.00 | 0.00 | 67 | 1010.5 |
| 20260502015003 | 61 | 0 | 0.0 | 0.0 | 0.00 | 0.00 | 0.00 | 66 | 1010.5 |
| 20260502014503 | 61 | 243 | 0.0 | 6.1 | 0.00 | 0.00 | 0.00 | 66 | 1010.6 |
| 20260502014003 | 61 | 210 | 0.9 | 7.0 | 0.00 | 0.00 | 0.00 | 65 | 1010.4 |
| 20260502013503 | 61 | 185 | 0.0 | 7.0 | 0.00 | 0.00 | 0.00 | 65 | 1010.3 |
| 20260502013003 | 61 | 112 | 0.0 | 0.9 | 0.00 | 0.00 | 0.00 | 66 | 1010.1 |
| 20260502012503 | 61 | 0 | 0.0 | 0.0 | 0.00 | 0.00 | 0.00 | 66 | 1010.2 |
| 20260502012003 | 61 | 0 | 0.0 | 0.0 | 0.00 | 0.00 | 0.00 | 66 | 1010.2 |
| 20260502011503 | 61 | 0 | 0.0 | 0.0 | 0.00 | 0.00 | 0.00 | 65 | 1010.2 |
| 20260502011003 | 61 | 0 | 0.0 | 0.0 | 0.00 | 0.00 | 0.00 | 65 | 1010.0 |
| 20260502010503 | 62 | 0 | 0.0 | 0.0 | 0.00 | 0.00 | 0.00 | 63 | 1010.0 |
| 20260502010003 | 62 | 0 | 0.0 | 0.0 | 0.00 | 0.00 | 0.00 | 63 | 1009.8 |
| 20260502005503 | 62 | 0 | 0.0 | 0.0 | 0.00 | 0.00 | 0.00 | 62 | 1009.8 |
| 20260502005003 | 62 | 0 | 0.0 | 0.0 | 0.00 | 0.00 | 0.00 | 62 | 1009.8 |
| 20260502004503 | 62 | 0 | 0.0 | 0.0 | 0.00 | 0.00 | 0.00 | 62 | 1009.7 |
| 20260502004003 | 62 | 0 | 0.0 | 0.0 | 0.00 | 0.00 | 0.00 | 61 | 1009.7 |
| 20260502003503 | 63 | 0 | 0.0 | 0.0 | 0.00 | 0.00 | 0.00 | 60 | 1009.6 |
| 20260502003003 | 63 | 0 | 0.0 | 0.0 | 0.00 | 0.00 | 0.00 | 60 | 1009.5 |
| 20260502002503 | 63 | 0 | 0.0 | 0.0 | 0.00 | 0.00 | 0.00 | 59 | 1009.5 |
| 20260502002003 | 63 | 0 | 0.0 | 0.0 | 0.00 | 0.00 | 0.00 | 58 | 1009.4 |
| 20260502001524 | 63 | 0 | 0.0 | 0.0 | 0.00 | 0.00 | 0.00 | 57 | 1009.2 |
| 20260502001024 | 63 | 0 | 0.0 | 0.0 | 0.00 | 0.00 | 0.00 | 58 | 1009.0 |
| 20260502000503 | 64 | 0 | 0.0 | 0.0 | 0.00 | 0.00 | 0.00 | 57 | 1009.0 |
| 20260502000024 | 64 | 0 | 0.0 | 0.0 | 0.00 | 0.00 | 0.00 | 57 | 1009.1 |
| 20260501235503 | 64 | 158 | 0.0 | 0.9 | 0.00 | 0.00 | 0.00 | 56 | 1009.0 |
| 20260501235003 | 64 | 158 | 0.0 | 0.9 | 0.00 | 0.00 | 0.00 | 56 | 1008.9 |
| 20260501234503 | 64 | 157 | 0.0 | 0.9 | 0.00 | 0.00 | 0.00 | 56 | 1009.0 |
| 20260501234003 | 65 | 157 | 0.0 | 0.9 | 0.00 | 0.00 | 0.00 | 55 | 1009.0 |
| 20260501233524 | 65 | 186 | 0.0 | 5.2 | 0.00 | 0.00 | 0.00 | 55 | 1009.1 |
| 20260501233003 | 65 | 175 | 0.0 | 5.2 | 0.00 | 0.00 | 0.00 | 55 | 1009.0 |
| 20260501232503 | 65 | 207 | 0.9 | 9.6 | 0.00 | 0.00 | 0.00 | 54 | 1009.0 |
| 20260501232024 | 65 | 190 | 1.7 | 9.6 | 0.00 | 0.00 | 0.00 | 53 | 1009.0 |
| 20260501231503 | 66 | 179 | 0.9 | 7.0 | 0.00 | 0.00 | 0.00 | 52 | 1008.9 |
| 20260501231003 | 66 | 184 | 0.0 | 5.2 | 0.00 | 0.00 | 0.00 | 53 | 1008.9 |
| 20260501230524 | 66 | 180 | 0.9 | 8.7 | 0.00 | 0.00 | 0.00 | 53 | 1008.8 |
| 20260501230003 | 66 | 191 | 1.7 | 8.7 | 0.00 | 0.00 | 0.00 | 51 | 1008.9 |
| 20260501225503 | 66 | 213 | 0.9 | 7.8 | 0.00 | 0.00 | 0.00 | 51 | 1008.7 |
| 20260501225003 | 66 | 230 | 1.7 | 8.7 | 0.00 | 0.00 | 0.00 | 51 | 1008.7 |
| 20260501224503 | 66 | 229 | 1.7 | 8.7 | 0.00 | 0.00 | 0.00 | 50 | 1008.8 |
| 20260501224003 | 66 | 227 | 0.9 | 7.0 | 0.00 | 0.00 | 0.00 | 49 | 1008.7 |
| 20260501223503 | 66 | 181 | 0.9 | 7.0 | 0.00 | 0.00 | 0.00 | 50 | 1008.8 |
| 20260501223003 | 67 | 168 | 0.9 | 7.0 | 0.00 | 0.00 | 0.00 | 48 | 1009.0 |
| 20260501222503 | 67 | 174 | 0.0 | 6.1 | 0.00 | 0.00 | 0.00 | 48 | 1009.0 |
| 20260501222003 | 67 | 164 | 0.0 | 5.2 | 0.00 | 0.00 | 0.00 | 48 | 1008.9 |
| 20260501221503 | 67 | 154 | 0.9 | 7.0 | 0.00 | 0.00 | 0.00 | 48 | 1008.9 |
| 20260501221003 | 67 | 195 | 1.7 | 9.6 | 0.00 | 0.00 | 0.00 | 47 | 1009.0 |
| 20260501220503 | 67 | 194 | 1.7 | 9.6 | 0.00 | 0.00 | 0.00 | 47 | 1009.0 |
| 20260501220003 | 67 | 176 | 0.9 | 6.1 | 0.00 | 0.00 | 0.00 | 46 | 1009.1 |
| 20260501215503 | 67 | 213 | 0.9 | 6.1 | 0.00 | 0.00 | 0.00 | 46 | 1009.1 |
| 20260501215003 | 68 | 191 | 0.9 | 6.1 | 0.00 | 0.00 | 0.00 | 47 | 1009.2 |
| 20260501214503 | 68 | 174 | 0.9 | 6.1 | 0.00 | 0.00 | 0.00 | 47 | 1009.3 |
| 20260501214003 | 68 | 202 | 0.9 | 6.1 | 0.00 | 0.00 | 0.00 | 48 | 1009.3 |
| 20260501213503 | 68 | 227 | 1.7 | 8.7 | 0.00 | 0.00 | 0.00 | 47 | 1009.3 |
| 20260501213003 | 69 | 218 | 2.6 | 8.7 | 0.00 | 0.00 | 0.00 | 45 | 1009.3 |
| 20260501212503 | 69 | 193 | 0.9 | 8.7 | 0.00 | 0.00 | 0.00 | 46 | 1009.3 |
| 20260501212003 | 69 | 227 | 0.9 | 6.1 | 0.00 | 0.00 | 0.00 | 46 | 1009.3 |
| 20260501211524 | 70 | 227 | 1.7 | 8.7 | 0.00 | 0.00 | 0.00 | 44 | 1009.4 |
| 20260501211003 | 70 | 236 | 0.9 | 8.7 | 0.00 | 0.00 | 0.00 | 43 | 1009.6 |
| 20260501210503 | 70 | 180 | 0.9 | 7.8 | 0.00 | 0.00 | 0.00 | 43 | 1009.5 |
| 20260501210003 | 70 | 176 | 0.9 | 7.8 | 0.00 | 0.00 | 0.00 | 45 | 1009.7 |
| 20260501205503 | 71 | 192 | 0.9 | 6.1 | 0.00 | 0.00 | 0.00 | 45 | 1009.8 |
| 20260501205003 | 70 | 182 | 0.9 | 5.2 | 0.00 | 0.00 | 0.00 | 44 | 1009.7 |
| 20260501204503 | 70 | 186 | 1.7 | 7.8 | 0.00 | 0.00 | 0.00 | 44 | 1009.7 |
| 20260501204003 | 69 | 213 | 1.7 | 10.4 | 0.00 | 0.00 | 0.00 | 45 | 1009.9 |
| 20260501203503 | 69 | 236 | 1.7 | 10.4 | 0.00 | 0.00 | 0.00 | 43 | 1009.9 |
| 20260501203003 | 69 | 220 | 0.9 | 6.1 | 0.00 | 0.00 | 0.00 | 43 | 1010.0 |
| 20260501202524 | 69 | 201 | 1.7 | 7.0 | 0.00 | 0.00 | 0.00 | 44 | 1010.0 |
| 20260501202024 | 69 | 223 | 1.7 | 7.0 | 0.00 | 0.00 | 0.00 | 45 | 1010.1 |
| 20260501201503 | 69 | 249 | 0.9 | 10.4 | 0.00 | 0.00 | 0.00 | 44 | 1010.2 |
| 20260501201003 | 69 | 235 | 0.9 | 10.4 | 0.00 | 0.00 | 0.00 | 42 | 1010.3 |
| 20260501200524 | 69 | 171 | 0.9 | 6.1 | 0.00 | 0.00 | 0.00 | 44 | 1010.3 |
| 20260501200003 | 69 | 213 | 1.7 | 8.7 | 0.00 | 0.00 | 0.00 | 42 | 1010.5 |
| 20260501195503 | 69 | 231 | 0.9 | 8.7 | 0.00 | 0.00 | 0.00 | 42 | 1010.5 |
| 20260501195003 | 69 | 254 | 0.9 | 5.2 | 0.00 | 0.00 | 0.00 | 45 | 1010.6 |
| 20260501194503 | 69 | 227 | 1.7 | 8.7 | 0.00 | 0.00 | 0.00 | 46 | 1010.8 |
| 20260501194003 | 68 | 227 | 2.6 | 8.7 | 0.00 | 0.00 | 0.00 | 44 | 1010.9 |
| 20260501193503 | 68 | 233 | 1.7 | 7.8 | 0.00 | 0.00 | 0.00 | 46 | 1010.8 |
| 20260501193003 | 68 | 206 | 0.9 | 6.1 | 0.00 | 0.00 | 0.00 | 44 | 1011.0 |
| 20260501192524 | 68 | 180 | 0.9 | 5.2 | 0.00 | 0.00 | 0.00 | 44 | 1011.1 |
| 20260501192003 | 68 | 233 | 0.9 | 10.4 | 0.00 | 0.00 | 0.00 | 46 | 1011.2 |
| 20260501191503 | 67 | 216 | 1.7 | 10.4 | 0.00 | 0.00 | 0.00 | 43 | 1011.2 |
| 20260501191003 | 67 | 166 | 2.6 | 8.7 | 0.00 | 0.00 | 0.00 | 47 | 1011.2 |
| 20260501190503 | 67 | 146 | 2.6 | 7.8 | 0.00 | 0.00 | 0.00 | 44 | 1011.3 |
| 20260501190003 | 67 | 175 | 2.6 | 10.4 | 0.00 | 0.00 | 0.00 | 46 | 1011.3 |
| 20260501185503 | 67 | 174 | 2.6 | 10.4 | 0.00 | 0.00 | 0.00 | 45 | 1011.5 |
| 20260501185003 | 68 | 147 | 0.9 | 9.6 | 0.00 | 0.00 | 0.00 | 44 | 1011.4 |
| 20260501184504 | 67 | 164 | 0.9 | 7.0 | 0.00 | 0.00 | 0.00 | 46 | 1011.6 |
| 20260501184003 | 67 | 176 | 1.7 | 7.0 | 0.00 | 0.00 | 0.00 | 47 | 1011.8 |
| 20260501183503 | 67 | 210 | 0.9 | 7.0 | 0.00 | 0.00 | 0.00 | 47 | 1011.8 |
| 20260501183003 | 67 | 149 | 0.9 | 7.0 | 0.00 | 0.00 | 0.00 | 46 | 1011.8 |
| 20260501182503 | 66 | 127 | 0.9 | 4.3 | 0.00 | 0.00 | 0.00 | 48 | 1011.9 |
| 20260501182003 | 66 | 134 | 0.9 | 4.3 | 0.00 | 0.00 | 0.00 | 50 | 1012.1 |
| 20260501181503 | 66 | 134 | 0.9 | 6.1 | 0.00 | 0.00 | 0.00 | 48 | 1012.2 |
| 20260501181003 | 65 | 146 | 1.7 | 9.6 | 0.00 | 0.00 | 0.00 | 45 | 1012.3 |
| 20260501180524 | 65 | 127 | 1.7 | 9.6 | 0.00 | 0.00 | 0.00 | 48 | 1012.4 |
| 20260501180024 | 65 | 118 | 0.9 | 9.6 | 0.00 | 0.00 | 0.00 | 47 | 1012.3 |
| 20260501175503 | 65 | 144 | 0.9 | 5.2 | 0.00 | 0.00 | 0.00 | 45 | 1012.5 |
| 20260501175003 | 65 | 165 | 0.0 | 5.2 | 0.00 | 0.00 | 0.00 | 49 | 1012.5 |
| 20260501174503 | 64 | 195 | 1.7 | 7.8 | 0.00 | 0.00 | 0.00 | 47 | 1012.6 |
| 20260501174003 | 64 | 211 | 2.6 | 9.6 | 0.00 | 0.00 | 0.00 | 44 | 1012.7 |
| 20260501173503 | 64 | 215 | 1.7 | 9.6 | 0.00 | 0.00 | 0.00 | 44 | 1012.9 |
| 20260501173003 | 64 | 192 | 1.7 | 7.0 | 0.00 | 0.00 | 0.00 | 48 | 1012.8 |